TimePST,TemperatureF,Dew PointF,Humidity,Sea Level PressureIn,VisibilityMPH,Wind Direction,Wind SpeedMPH,Gust SpeedMPH,PrecipitationIn,Events,Conditions,WindDirDegrees,DateUTC
12:53 AM,32.0,30.0,92,30.06,0.5,NE,5.8,-,N/A,Fog,Fog,50,2013-03-08 08:53:00
1:15 AM,32.0,30.2,93,30.02,0.1,NE,5.8,-,N/A,Fog,Fog,50,2013-03-08 09:15:00
1:53 AM,32.0,30.9,96,30.06,0.1,ENE,4.6,-,N/A,Fog,Fog,60,2013-03-08 09:53:00
2:53 AM,30.9,30.0,96,30.06,0.1,ENE,3.5,-,N/A,Fog,Light Freezing Fog,60,2013-03-08 10:53:00
3:53 AM,28.9,28.0,96,30.06,0.1,NE,4.6,-,N/A,Fog,Light Freezing Fog,50,2013-03-08 11:53:00
4:53 AM,28.9,28.0,96,30.06,0.1,NE,4.6,-,N/A,Fog,Light Freezing Fog,40,2013-03-08 12:53:00
5:53 AM,28.9,28.0,96,30.07,0.1,ENE,6.9,-,N/A,Fog,Light Freezing Fog,60,2013-03-08 13:53:00
6:53 AM,28.9,28.0,96,30.08,0.1,NNE,6.9,-,N/A,Fog,Light Freezing Fog,30,2013-03-08 14:53:00
7:53 AM,28.9,28.0,96,30.09,0.1,ENE,4.6,-,N/A,Fog,Light Freezing Fog,60,2013-03-08 15:53:00
8:53 AM,30.0,28.0,92,30.09,0.1,NE,6.9,-,N/A,Fog,Light Freezing Fog,40,2013-03-08 16:53:00
9:42 AM,30.2,28.4,93,30.03,0.1,North,6.9,-,N/A,Fog,Light Freezing Fog,10,2013-03-08 17:42:00
9:53 AM,30.9,30.0,96,30.09,0.1,NNE,6.9,-,N/A,Fog,Light Freezing Fog,30,2013-03-08 17:53:00
10:53 AM,32.0,30.9,96,30.10,0.1,ENE,5.8,-,N/A,Fog,Fog,70,2013-03-08 18:53:00
11:53 AM,32.0,32.0,100,30.09,0.1,ENE,4.6,-,N/A,Fog,Fog,60,2013-03-08 19:53:00
12:53 PM,34.0,33.1,96,30.08,0.1,NNE,5.8,-,N/A,,Overcast,30,2013-03-08 20:53:00
1:53 PM,35.1,33.1,92,30.07,1.0,North,5.8,-,N/A,,Overcast,360,2013-03-08 21:53:00
2:13 PM,35.6,33.8,93,30.02,3.0,NE,6.9,-,N/A,,Overcast,40,2013-03-08 22:13:00
2:53 PM,37.0,33.1,86,30.07,10.0,North,3.5,-,N/A,,Mostly Cloudy,10,2013-03-08 22:53:00
3:06 PM,37.4,33.8,87,30.02,10.0,NNE,4.6,-,N/A,,Mostly Cloudy,30,2013-03-08 23:06:00
3:28 PM,39.2,33.8,81,30.01,10.0,Calm,Calm,-,N/A,,Scattered Clouds,0,2013-03-08 23:28:00
3:53 PM,39.0,33.1,79,30.07,10.0,Calm,Calm,-,N/A,,Partly Cloudy,0,2013-03-08 23:53:00
4:53 PM,39.9,33.1,77,30.07,10.0,Calm,Calm,-,N/A,,Scattered Clouds,0,2013-03-09 00:53:00
5:53 PM,39.0,32.0,76,30.08,10.0,Calm,Calm,-,N/A,,Partly Cloudy,0,2013-03-09 01:53:00
6:53 PM,35.1,30.9,85,30.10,10.0,South,3.5,-,N/A,,Partly Cloudy,170,2013-03-09 02:53:00
7:53 PM,33.1,30.0,89,30.12,10.0,Calm,Calm,-,N/A,,Partly Cloudy,0,2013-03-09 03:53:00
8:53 PM,30.0,27.0,88,30.14,10.0,SW,4.6,-,N/A,,Partly Cloudy,230,2013-03-09 04:53:00
9:53 PM,32.0,30.0,92,30.14,10.0,SW,3.5,-,N/A,,Mostly Cloudy,230,2013-03-09 05:53:00
10:53 PM,34.0,30.0,85,30.14,10.0,SW,5.8,-,N/A,,Mostly Cloudy,220,2013-03-09 06:53:00
11:53 PM,34.0,28.9,82,30.16,10.0,WSW,3.5,-,N/A,,Overcast,250,2013-03-09 07:53:00